GW3650 Weather Reports


Display with metric or nautical units.
time (UTC)temp
F
wind
direction
speed
MPH
gust
MPH
rain 1hr
in
rain 24hr
in
rain mn
in
humidity
%
barometer
mb
20260505210038 50 0 2.0 5.0 0.00 0.00 0.00 86 1030.0
20260505203017 51 0 2.0 6.0 0.00 0.00 0.00 85 1029.7
20260505200017 51 0 3.0 9.0 0.00 0.00 0.00 85 1029.5
20260505193018 51 0 3.0 9.0 0.00 0.00 0.00 86 1029.5
20260505190018 51 0 2.0 6.0 0.00 0.00 0.00 86 1029.2
20260505183017 50 0 2.0 6.0 0.00 0.00 0.00 85 1029.3
20260505180017 50 0 2.0 4.0 0.00 0.00 0.00 84 1029.3
20260505173017 51 0 2.0 6.0 0.00 0.00 0.00 83 1029.4
20260505170018 52 0 2.0 8.0 0.00 0.00 0.00 83 1029.1
20260505163017 51 0 2.0 9.0 0.00 0.00 0.00 83 1029.1
20260505153019 50 0 1.0 3.0 0.00 0.00 0.00 79 1029.1
20260505123017 53 0.0 0.0 0.00 0.00 0.00 75 1027.8
20260505120016 55 0.0 0.0 0.00 0.00 0.00 73 1027.5
20260505113017 56 0.0 0.0 0.00 0.00 0.00 71 1027.2
20260505100036 64 0.0 2.0 0.00 0.00 0.00 59 1027.0
20260505093038 68 158 1.0 5.0 0.00 0.00 0.00 52 1026.9
20260505090016 69 158 3.0 9.0 0.00 0.00 0.00 51 1026.8
20260505083016 70 158 4.0 10.0 0.00 0.00 0.00 51 1026.6
20260505080016 70 158 5.0 11.0 0.00 0.00 0.00 52 1026.6
20260505073017 70 158 3.0 9.0 0.00 0.00 0.00 51 1026.7
20260505070038 70 113 4.0 9.0 0.00 0.00 0.00 49 1026.6
20260505063017 70 113 4.0 10.0 0.00 0.00 0.00 52 1026.5
20260505060017 70 68 3.0 10.0 0.00 0.00 0.00 53 1026.5
20260505053017 70 293 2.0 8.0 0.00 0.00 0.00 54 1026.5
20260505040017 67 113 2.0 8.0 0.00 0.00 0.00 61 1028.1
20260505033019 67 90 3.0 7.0 0.00 0.00 0.00 62 1028.4
20260505030018 64 315 2.0 7.0 0.00 0.00 0.00 68 1028.5
20260505023017 61 270 2.0 6.0 0.00 0.00 0.00 76 1028.6
20260505020018 58 270 3.0 7.0 0.00 0.00 0.00 83 1028.9
20260505013017 55 225 3.0 7.0 0.00 0.00 0.00 91 1029.0
20260505010017 51 225 2.0 5.0 0.00 0.00 0.00 93 1028.9
20260505003018 49 225 2.0 7.0 0.00 0.00 0.00 92 1028.6
20260505000018 47 203 2.0 7.0 0.00 0.00 0.00 92 1028.3
20260504233058 44 0.0 1.0 0.00 0.00 0.00 92 1027.9
20260504230017 45 0 1.0 3.0 0.00 0.00 0.00 91 1027.7
20260504223018 46 0 2.0 5.0 0.00 0.00 0.00 91 1027.7
20260504220017 46 0 2.0 5.0 0.00 0.00 0.00 91 1027.7
20260504213017 47 0 2.0 5.0 0.00 0.00 0.00 91 1027.7